TimePDT,TemperatureF,Dew PointF,Humidity,Sea Level PressureIn,VisibilityMPH,Wind Direction,Wind SpeedMPH,Gust SpeedMPH,PrecipitationIn,Events,Conditions,WindDirDegrees,DateUTC
12:10 AM,44.6,35.6,71,29.98,10.0,Calm,Calm,-,N/A,,Overcast,0,2013-05-07 07:10:00
12:30 AM,44.6,35.6,71,29.98,10.0,Calm,Calm,-,N/A,,Overcast,0,2013-05-07 07:30:00
12:50 AM,42.8,37.4,81,29.97,10.0,Calm,Calm,-,N/A,,Overcast,0,2013-05-07 07:50:00
1:10 AM,42.8,37.4,81,29.97,10.0,Calm,Calm,-,N/A,,Overcast,0,2013-05-07 08:10:00
1:30 AM,41.0,37.4,87,29.96,10.0,Calm,Calm,-,N/A,,Overcast,0,2013-05-07 08:30:00
1:50 AM,41.0,35.6,81,29.96,10.0,East,3.5,-,N/A,,Mostly Cloudy,90,2013-05-07 08:50:00
2:10 AM,41.0,32.0,70,29.96,10.0,South,8.1,-,N/A,,Partly Cloudy,170,2013-05-07 09:10:00
2:30 AM,41.0,32.0,70,29.95,10.0,SSE,5.8,-,N/A,,Mostly Cloudy,160,2013-05-07 09:30:00
2:50 AM,39.2,32.0,75,29.95,10.0,South,4.6,-,N/A,,Overcast,170,2013-05-07 09:50:00
3:10 AM,37.4,32.0,81,29.95,10.0,SW,4.6,-,N/A,,Overcast,220,2013-05-07 10:10:00
3:30 AM,35.6,32.0,87,29.95,10.0,Calm,Calm,-,N/A,,Overcast,0,2013-05-07 10:30:00
3:50 AM,37.4,32.0,81,29.95,10.0,SW,4.6,-,N/A,,Overcast,220,2013-05-07 10:50:00
4:10 AM,35.6,32.0,87,29.95,10.0,South,5.8,-,N/A,,Mostly Cloudy,180,2013-05-07 11:10:00
4:30 AM,35.6,30.2,81,29.95,10.0,South,4.6,-,N/A,,Partly Cloudy,190,2013-05-07 11:30:00
4:50 AM,33.8,28.4,81,29.95,10.0,SSW,6.9,-,N/A,,Clear,200,2013-05-07 11:50:00
5:10 AM,32.0,28.4,87,29.96,10.0,SW,3.5,-,N/A,,Clear,220,2013-05-07 12:10:00
5:30 AM,32.0,28.4,87,29.96,10.0,South,3.5,-,N/A,,Clear,170,2013-05-07 12:30:00
5:50 AM,32.0,28.4,87,29.96,10.0,SSE,4.6,-,N/A,,Clear,160,2013-05-07 12:50:00
6:10 AM,32.0,28.4,87,29.96,9.0,SSE,3.5,-,N/A,,Clear,160,2013-05-07 13:10:00
6:30 AM,32.0,28.4,87,29.97,10.0,Calm,Calm,-,N/A,,Clear,0,2013-05-07 13:30:00
6:50 AM,37.4,32.0,81,29.96,10.0,South,4.6,-,N/A,,Clear,170,2013-05-07 13:50:00
7:10 AM,41.0,32.0,70,29.96,10.0,Calm,Calm,-,N/A,,Clear,0,2013-05-07 14:10:00
7:30 AM,44.6,32.0,61,29.96,10.0,SW,3.5,-,N/A,,Clear,230,2013-05-07 14:30:00
7:50 AM,48.2,33.8,58,29.96,10.0,WSW,4.6,-,N/A,,Clear,250,2013-05-07 14:50:00
8:10 AM,50.0,33.8,54,29.96,10.0,WSW,6.9,-,N/A,,Clear,240,2013-05-07 15:10:00
8:30 AM,50.0,33.8,54,29.96,10.0,SSW,4.6,-,N/A,,Clear,210,2013-05-07 15:30:00
8:50 AM,53.6,32.0,44,29.96,10.0,North,3.5,-,N/A,,Clear,360,2013-05-07 15:50:00
9:10 AM,51.8,32.0,47,29.96,10.0,Calm,Calm,-,N/A,,Clear,0,2013-05-07 16:10:00
9:30 AM,53.6,32.0,44,29.96,10.0,East,3.5,-,N/A,,Partly Cloudy,80,2013-05-07 16:30:00
9:50 AM,55.4,32.0,41,29.96,9.0,East,4.6,-,N/A,,Scattered Clouds,90,2013-05-07 16:50:00
10:10 AM,55.4,32.0,41,29.96,10.0,ENE,3.5,-,N/A,,Mostly Cloudy,70,2013-05-07 17:10:00
10:30 AM,55.4,32.0,41,29.96,7.0,East,5.8,-,N/A,,Scattered Clouds,100,2013-05-07 17:30:00
10:50 AM,57.2,30.2,36,29.95,5.0,ESE,4.6,-,N/A,,Clear,120,2013-05-07 17:50:00
11:10 AM,59.0,28.4,31,29.95,10.0,ENE,6.9,-,N/A,,Clear,60,2013-05-07 18:10:00
11:30 AM,59.0,28.4,31,29.94,10.0,East,8.1,-,N/A,,Clear,100,2013-05-07 18:30:00
11:50 AM,59.0,30.2,34,29.94,5.0,ESE,8.1,-,N/A,,Scattered Clouds,110,2013-05-07 18:50:00
12:10 PM,59.0,30.2,34,29.93,10.0,East,4.6,-,N/A,,Mostly Cloudy,90,2013-05-07 19:10:00
12:30 PM,59.0,32.0,36,29.92,10.0,ENE,5.8,-,N/A,,Partly Cloudy,60,2013-05-07 19:30:00
12:50 PM,57.2,30.2,36,29.92,10.0,North,3.5,-,N/A,,Partly Cloudy,360,2013-05-07 19:50:00
1:10 PM,59.0,32.0,36,29.92,10.0,SSE,13.8,-,N/A,,Clear,150,2013-05-07 20:10:00
1:30 PM,55.4,32.0,41,29.92,10.0,South,17.3,-,N/A,,Mostly Cloudy,170,2013-05-07 20:30:00
1:50 PM,53.6,33.8,47,29.93,10.0,SSE,21.9,-,N/A,,Mostly Cloudy,150,2013-05-07 20:50:00
2:10 PM,50.0,35.6,58,29.94,10.0,SE,19.6,27.6,N/A,,Scattered Clouds,140,2013-05-07 21:10:00
2:30 PM,50.0,35.6,58,29.94,10.0,SE,19.6,24.2,N/A,,Mostly Cloudy,140,2013-05-07 21:30:00
2:50 PM,51.8,35.6,54,29.94,10.0,SSE,17.3,-,N/A,,Scattered Clouds,160,2013-05-07 21:50:00
3:10 PM,51.8,35.6,54,29.94,10.0,SSE,13.8,-,N/A,,Clear,150,2013-05-07 22:10:00
3:30 PM,53.6,35.6,51,29.94,10.0,South,12.7,-,N/A,,Clear,170,2013-05-07 22:30:00
3:50 PM,53.6,32.0,44,29.94,10.0,SSE,11.5,-,N/A,,Mostly Cloudy,160,2013-05-07 22:50:00
4:10 PM,53.6,32.0,44,29.94,10.0,SSE,12.7,-,N/A,,Overcast,150,2013-05-07 23:10:00
4:30 PM,51.8,32.0,47,29.96,10.0,NE,5.8,-,N/A,,Mostly Cloudy,50,2013-05-07 23:30:00
4:50 PM,44.6,39.2,81,29.97,1.8,North,15.0,19.6,0.01,,Overcast,350,2013-05-07 23:50:00
5:10 PM,44.6,41.0,87,29.98,1.5,North,8.1,-,0.03,,Overcast,350,2013-05-08 00:10:00
5:30 PM,42.8,41.0,93,29.98,3.0,NW,5.8,-,0.07,,Overcast,310,2013-05-08 00:30:00
5:50 PM,44.6,41.0,87,29.99,4.0,NW,3.5,-,0.10,,Overcast,310,2013-05-08 00:50:00
6:10 PM,44.6,39.2,81,29.99,10.0,South,3.5,-,N/A,,Overcast,190,2013-05-08 01:10:00
6:30 PM,42.8,41.0,93,29.99,10.0,SSE,5.8,-,N/A,,Overcast,150,2013-05-08 01:30:00
6:50 PM,42.8,39.2,87,30.00,10.0,SSW,5.8,-,N/A,,Overcast,200,2013-05-08 01:50:00
7:10 PM,42.8,39.2,87,30.00,10.0,SSW,8.1,-,N/A,,Overcast,200,2013-05-08 02:10:00
7:30 PM,42.8,39.2,87,30.00,10.0,South,6.9,-,N/A,,Overcast,180,2013-05-08 02:30:00
7:50 PM,42.8,39.2,87,30.01,10.0,South,5.8,-,N/A,,Overcast,170,2013-05-08 02:50:00
8:10 PM,42.8,39.2,87,30.01,10.0,South,5.8,-,N/A,,Overcast,190,2013-05-08 03:10:00
8:30 PM,41.0,39.2,93,30.02,10.0,South,4.6,-,N/A,,Overcast,190,2013-05-08 03:30:00
8:50 PM,41.0,39.2,93,30.02,10.0,SW,4.6,-,N/A,,Mostly Cloudy,220,2013-05-08 03:50:00
9:10 PM,41.0,39.2,93,30.02,10.0,Calm,Calm,-,N/A,,Mostly Cloudy,0,2013-05-08 04:10:00
9:30 PM,39.2,37.4,93,30.03,10.0,SSE,5.8,-,N/A,,Mostly Cloudy,150,2013-05-08 04:30:00
9:50 PM,39.2,39.2,100,30.03,10.0,SSE,5.8,-,N/A,,Mostly Cloudy,160,2013-05-08 04:50:00
10:10 PM,39.2,39.2,100,30.04,10.0,Calm,Calm,-,N/A,,Mostly Cloudy,0,2013-05-08 05:10:00
10:30 PM,37.4,37.4,100,30.04,10.0,SSW,3.5,-,N/A,,Partly Cloudy,200,2013-05-08 05:30:00
10:50 PM,37.4,35.6,93,30.04,10.0,South,4.6,-,N/A,,Clear,180,2013-05-08 05:50:00
11:10 PM,35.6,35.6,100,30.05,10.0,South,4.6,-,N/A,,Clear,190,2013-05-08 06:10:00
11:30 PM,35.6,33.8,93,30.05,10.0,South,4.6,-,N/A,,Clear,170,2013-05-08 06:30:00
11:50 PM,35.6,32.0,87,30.05,10.0,Calm,Calm,-,N/A,,Clear,0,2013-05-08 06:50:00